Time,TemperatureF,DewpointF,PressureIn,WindDirection,WindDirectionDegrees,WindSpeedMPH,WindSpeedGustMPH,Humidity,HourlyPrecipIn,Conditions,Clouds,dailyrainin,SolarRadiationWatts/m^2,SoftwareType,DateUTC
2013-03-01 00:01:00,43.0,43.0,-100.00,South,190,7.0,10.0,100,0.00,,,0.85,1.000000,,2013-03-01 08:01:00,
2013-03-01 00:11:00,43.0,43.0,-100.00,South,190,7.0,10.0,100,0.00,,,0.85,1.000000,,2013-03-01 08:11:00,
2013-03-01 00:22:00,43.0,43.0,-100.00,South,190,7.0,10.0,100,0.00,,,0.85,1.000000,,2013-03-01 08:22:00,
2013-03-01 00:31:00,43.0,43.0,-100.00,South,190,7.0,10.0,100,0.00,,,0.85,1.000000,,2013-03-01 08:31:00,
2013-03-01 00:53:00,43.0,43.0,-100.00,SSW,200,5.0,9.0,100,0.00,,,0.82,1.000000,,2013-03-01 08:53:00,
2013-03-01 01:02:00,43.0,43.0,-100.00,SSW,200,5.0,9.0,100,0.00,,,0.82,1.000000,,2013-03-01 09:02:00,
2013-03-01 01:11:00,43.0,43.0,-100.00,SSW,200,5.0,9.0,100,0.00,,,0.82,1.000000,,2013-03-01 09:11:00,
2013-03-01 01:21:00,43.0,43.0,-100.00,SSW,200,5.0,9.0,100,0.00,,,0.82,1.000000,,2013-03-01 09:21:00,
2013-03-01 01:31:00,43.0,43.0,-100.00,SSW,200,5.0,9.0,100,0.00,,,0.82,1.000000,,2013-03-01 09:31:00,
2013-03-01 02:01:00,41.0,41.0,-100.00,SSW,196,4.0,7.0,100,0.00,,,0.77,1.000000,,2013-03-01 10:01:00,
2013-03-01 02:11:00,41.0,41.0,-100.00,SSW,196,4.0,7.0,100,0.00,,,0.77,1.000000,,2013-03-01 10:11:00,
2013-03-01 02:21:00,41.0,41.0,-100.00,SSW,196,4.0,7.0,100,0.00,,,0.77,1.000000,,2013-03-01 10:21:00,
2013-03-01 02:31:00,41.0,41.0,-100.00,SSW,196,4.0,7.0,100,0.00,,,0.77,1.000000,,2013-03-01 10:31:00,
2013-03-01 02:52:00,41.0,41.0,-100.00,South,177,4.0,6.0,100,0.00,,,0.71,1.000000,,2013-03-01 10:52:00,
2013-03-01 03:01:00,41.0,41.0,-100.00,South,177,4.0,6.0,100,0.00,,,0.71,1.000000,,2013-03-01 11:01:00,
2013-03-01 03:11:00,41.0,41.0,-100.00,South,177,4.0,6.0,100,0.00,,,0.71,1.000000,,2013-03-01 11:11:00,
2013-03-01 03:22:00,41.0,41.0,-100.00,South,177,4.0,6.0,100,0.00,,,0.71,1.000000,,2013-03-01 11:22:00,
2013-03-01 03:31:00,41.0,41.0,-100.00,South,177,4.0,6.0,100,0.00,,,0.71,1.000000,,2013-03-01 11:31:00,
2013-03-01 03:52:00,41.0,41.0,-100.00,SSW,204,5.0,7.0,100,0.01,,,0.67,1.000000,,2013-03-01 11:52:00,
2013-03-01 04:01:00,41.0,41.0,-100.00,SSW,204,5.0,7.0,100,0.01,,,0.67,1.000000,,2013-03-01 12:01:00,
2013-03-01 04:11:00,41.0,41.0,-100.00,SSW,204,5.0,7.0,100,0.01,,,0.67,1.000000,,2013-03-01 12:11:00,
2013-03-01 04:21:00,41.0,41.0,-100.00,SSW,204,5.0,7.0,100,0.01,,,0.67,1.000000,,2013-03-01 12:21:00,
2013-03-01 04:32:00,41.0,41.0,-100.00,SSW,204,5.0,7.0,100,0.01,,,0.67,1.000000,,2013-03-01 12:32:00,
2013-03-01 04:52:00,40.0,40.0,-100.00,SSW,198,6.0,8.0,100,0.00,,,-99.99,1.000000,,2013-03-01 12:52:00,
2013-03-01 05:01:00,40.0,40.0,-100.00,SSW,198,6.0,8.0,100,0.00,,,-99.99,1.000000,,2013-03-01 13:01:00,
2013-03-01 05:11:00,40.0,40.0,-100.00,SSW,198,6.0,8.0,100,0.00,,,-99.99,1.000000,,2013-03-01 13:11:00,
2013-03-01 05:21:00,40.0,40.0,-100.00,SSW,198,6.0,8.0,100,0.00,,,-99.99,1.000000,,2013-03-01 13:21:00,
2013-03-01 05:32:00,40.0,40.0,-100.00,SSW,198,6.0,8.0,100,0.00,,,-99.99,1.000000,,2013-03-01 13:32:00,
2013-03-01 06:01:00,42.0,42.0,-100.00,SSE,161,5.0,8.0,100,0.00,,,0.58,1.000000,,2013-03-01 14:01:00,
2013-03-01 06:11:00,42.0,42.0,-100.00,SSE,161,5.0,8.0,100,0.00,,,0.58,1.000000,,2013-03-01 14:11:00,
2013-03-01 06:21:00,42.0,42.0,-100.00,SSE,161,5.0,8.0,100,0.00,,,0.58,1.000000,,2013-03-01 14:21:00,
2013-03-01 06:32:00,42.0,42.0,-100.00,SSE,161,5.0,8.0,100,0.00,,,0.58,1.000000,,2013-03-01 14:32:00,
2013-03-01 06:52:00,42.0,42.0,-100.00,SSE,150,5.0,8.0,100,0.00,,,0.53,1.000000,,2013-03-01 14:52:00,
2013-03-01 07:01:00,42.0,42.0,-100.00,SSE,150,5.0,8.0,100,0.00,,,0.53,1.000000,,2013-03-01 15:01:00,
2013-03-01 07:11:00,42.0,42.0,-100.00,SSE,150,5.0,8.0,100,0.00,,,0.53,1.000000,,2013-03-01 15:11:00,
2013-03-01 07:21:00,42.0,42.0,-100.00,SSE,150,5.0,8.0,100,0.00,,,0.53,1.000000,,2013-03-01 15:21:00,
2013-03-01 07:31:00,42.0,42.0,-100.00,SSE,150,5.0,8.0,100,0.00,,,0.53,1.000000,,2013-03-01 15:31:00,
2013-03-01 07:52:00,42.0,42.0,-100.00,East,100,4.0,10.0,100,0.00,,,0.49,32.000000,,2013-03-01 15:52:00,
2013-03-01 08:01:00,42.0,42.0,-100.00,East,100,4.0,10.0,100,0.00,,,0.49,32.000000,,2013-03-01 16:01:00,
2013-03-01 08:11:00,42.0,42.0,-100.00,East,100,4.0,10.0,100,0.00,,,0.49,32.000000,,2013-03-01 16:11:00,
2013-03-01 08:21:00,42.0,42.0,-100.00,East,100,4.0,10.0,100,0.00,,,0.49,32.000000,,2013-03-01 16:21:00,
2013-03-01 08:31:00,42.0,42.0,-100.00,East,100,4.0,10.0,100,0.00,,,0.49,32.000000,,2013-03-01 16:31:00,
2013-03-01 08:52:00,46.0,45.0,-100.00,South,169,3.0,8.0,96,0.00,,,0.43,189.000000,,2013-03-01 16:52:00,
2013-03-01 09:01:00,46.0,45.0,-100.00,South,169,3.0,8.0,96,0.00,,,0.43,189.000000,,2013-03-01 17:01:00,
2013-03-01 09:11:00,46.0,45.0,-100.00,South,169,3.0,8.0,96,0.00,,,0.43,189.000000,,2013-03-01 17:11:00,
2013-03-01 09:21:00,46.0,45.0,-100.00,South,169,3.0,8.0,96,0.00,,,0.43,189.000000,,2013-03-01 17:21:00,
2013-03-01 09:31:00,46.0,45.0,-100.00,South,169,3.0,8.0,96,0.00,,,0.43,189.000000,,2013-03-01 17:31:00,
2013-03-01 09:52:00,50.0,48.0,-100.00,South,177,3.0,6.0,93,0.00,,,0.37,409.000000,,2013-03-01 17:52:00,
2013-03-01 10:01:00,50.0,48.0,-100.00,South,177,3.0,6.0,93,0.00,,,0.37,409.000000,,2013-03-01 18:01:00,
2013-03-01 10:12:00,50.0,48.0,-100.00,South,177,3.0,6.0,93,0.00,,,0.37,409.000000,,2013-03-01 18:12:00,
2013-03-01 10:22:00,50.0,48.0,-100.00,South,177,3.0,6.0,93,0.00,,,0.37,409.000000,,2013-03-01 18:22:00,
2013-03-01 10:31:00,50.0,48.0,-100.00,South,177,3.0,6.0,93,0.00,,,0.37,409.000000,,2013-03-01 18:31:00,
2013-03-01 10:52:00,50.0,45.0,-100.00,NW,326,2.0,7.0,82,0.00,,,0.30,471.000000,,2013-03-01 18:52:00,
2013-03-01 11:01:00,50.0,45.0,-100.00,NW,326,2.0,7.0,82,0.00,,,0.30,471.000000,,2013-03-01 19:01:00,
2013-03-01 11:11:00,50.0,45.0,-100.00,NW,326,2.0,7.0,82,0.00,,,0.30,471.000000,,2013-03-01 19:11:00,
2013-03-01 11:21:00,50.0,45.0,-100.00,NW,326,2.0,7.0,82,0.00,,,0.30,471.000000,,2013-03-01 19:21:00,
2013-03-01 11:31:00,50.0,45.0,-100.00,NW,326,2.0,7.0,82,0.00,,,0.30,471.000000,,2013-03-01 19:31:00,
2013-03-01 11:52:00,56.0,49.0,-100.00,NW,325,2.0,6.0,77,0.00,,,0.27,558.000000,,2013-03-01 19:52:00,
2013-03-01 12:01:00,56.0,49.0,-100.00,NW,325,2.0,6.0,77,0.00,,,0.27,558.000000,,2013-03-01 20:01:00,
2013-03-01 12:11:00,56.0,49.0,-100.00,NW,325,2.0,6.0,77,0.00,,,0.27,558.000000,,2013-03-01 20:11:00,
2013-03-01 12:21:00,56.0,49.0,-100.00,NW,325,2.0,6.0,77,0.00,,,0.27,558.000000,,2013-03-01 20:21:00,
2013-03-01 12:31:00,56.0,49.0,-100.00,NW,325,2.0,6.0,77,0.00,,,0.27,558.000000,,2013-03-01 20:31:00,
2013-03-01 12:52:00,56.0,52.0,-100.00,SSW,202,5.0,7.0,85,0.00,,,0.22,513.000000,,2013-03-01 20:52:00,
2013-03-01 13:01:00,56.0,52.0,-100.00,SSW,202,5.0,7.0,85,0.00,,,0.22,513.000000,,2013-03-01 21:01:00,
2013-03-01 13:11:00,56.0,52.0,-100.00,SSW,202,5.0,7.0,85,0.00,,,0.22,513.000000,,2013-03-01 21:11:00,
2013-03-01 13:21:00,56.0,52.0,-100.00,SSW,202,5.0,7.0,85,0.00,,,0.22,513.000000,,2013-03-01 21:21:00,
2013-03-01 13:31:00,56.0,52.0,-100.00,SSW,202,5.0,7.0,85,0.00,,,0.22,513.000000,,2013-03-01 21:31:00,
2013-03-01 13:52:00,57.0,51.0,-100.00,South,179,6.0,10.0,79,0.00,,,0.15,497.000000,,2013-03-01 21:52:00,
2013-03-01 14:01:00,57.0,51.0,-100.00,South,179,6.0,10.0,79,0.00,,,0.15,497.000000,,2013-03-01 22:01:00,
2013-03-01 14:11:00,57.0,51.0,-100.00,South,179,6.0,10.0,79,0.00,,,0.15,497.000000,,2013-03-01 22:11:00,
2013-03-01 14:21:00,57.0,51.0,-100.00,South,179,6.0,10.0,79,0.00,,,0.15,497.000000,,2013-03-01 22:21:00,
2013-03-01 14:31:00,57.0,51.0,-100.00,South,179,6.0,10.0,79,0.00,,,0.15,497.000000,,2013-03-01 22:31:00,
2013-03-01 14:52:00,58.0,50.0,-100.00,South,186,5.0,11.0,74,0.00,,,0.11,548.000000,,2013-03-01 22:52:00,
2013-03-01 15:01:00,58.0,50.0,-100.00,South,186,5.0,11.0,74,0.00,,,0.11,548.000000,,2013-03-01 23:01:00,
2013-03-01 15:11:00,58.0,50.0,-100.00,South,186,5.0,11.0,74,0.00,,,0.11,548.000000,,2013-03-01 23:11:00,
2013-03-01 15:21:00,58.0,50.0,-100.00,South,186,5.0,11.0,74,0.00,,,0.11,548.000000,,2013-03-01 23:21:00,
2013-03-01 15:31:00,58.0,50.0,-100.00,South,186,5.0,11.0,74,0.00,,,0.11,548.000000,,2013-03-01 23:31:00,
2013-03-01 15:52:00,58.0,49.0,-100.00,SW,222,2.0,6.0,72,0.00,,,0.07,379.000000,,2013-03-01 23:52:00,
2013-03-01 16:01:00,58.0,49.0,-100.00,SW,222,2.0,6.0,72,0.00,,,0.07,379.000000,,2013-03-02 00:01:00,
2013-03-01 16:11:00,58.0,49.0,-100.00,SW,222,2.0,6.0,72,0.00,,,0.07,379.000000,,2013-03-02 00:11:00,
2013-03-01 16:21:00,58.0,49.0,-100.00,SW,222,2.0,6.0,72,0.00,,,0.07,379.000000,,2013-03-02 00:21:00,
2013-03-01 16:31:00,58.0,49.0,-100.00,SW,222,2.0,6.0,72,0.00,,,0.07,379.000000,,2013-03-02 00:31:00,
2013-03-01 17:01:00,56.0,50.0,-100.00,South,186,3.0,5.0,79,0.00,,,0.04,259.000000,,2013-03-02 01:01:00,
2013-03-01 17:11:00,56.0,50.0,-100.00,South,186,3.0,5.0,79,0.00,,,0.04,259.000000,,2013-03-02 01:11:00,
2013-03-01 17:21:00,56.0,50.0,-100.00,South,186,3.0,5.0,79,0.00,,,0.04,259.000000,,2013-03-02 01:21:00,
2013-03-01 17:31:00,56.0,50.0,-100.00,South,186,3.0,5.0,79,0.00,,,0.04,259.000000,,2013-03-02 01:31:00,
2013-03-01 18:01:00,50.0,47.0,-100.00,NE,38,3.0,4.0,89,0.00,,,0.02,88.000000,,2013-03-02 02:01:00,
2013-03-01 18:11:00,50.0,47.0,-100.00,NE,38,3.0,4.0,89,0.00,,,0.02,88.000000,,2013-03-02 02:11:00,
2013-03-01 18:21:00,50.0,47.0,-100.00,NE,38,3.0,4.0,89,0.00,,,0.02,88.000000,,2013-03-02 02:21:00,
2013-03-01 18:31:00,50.0,47.0,-100.00,NE,38,3.0,4.0,89,0.00,,,0.02,88.000000,,2013-03-02 02:31:00,
2013-03-01 19:01:00,48.0,45.0,-100.00,North,11,3.0,4.0,90,0.00,,,0.01,9.000000,,2013-03-02 03:01:00,
2013-03-01 19:11:00,48.0,45.0,-100.00,North,11,3.0,4.0,90,0.00,,,0.01,9.000000,,2013-03-02 03:11:00,
2013-03-01 19:21:00,48.0,45.0,-100.00,North,11,3.0,4.0,90,0.00,,,0.01,9.000000,,2013-03-02 03:21:00,
2013-03-01 19:32:00,48.0,45.0,-100.00,North,11,3.0,4.0,90,0.00,,,0.01,9.000000,,2013-03-02 03:32:00,
2013-03-01 19:52:00,49.0,45.0,-100.00,North,9,3.0,5.0,87,0.00,,,0.01,1.000000,,2013-03-02 03:52:00,
2013-03-01 20:01:00,49.0,45.0,-100.00,North,9,3.0,5.0,87,0.00,,,0.01,1.000000,,2013-03-02 04:01:00,
2013-03-01 20:11:00,49.0,45.0,-100.00,North,9,3.0,5.0,87,0.00,,,0.01,1.000000,,2013-03-02 04:11:00,
2013-03-01 20:21:00,49.0,45.0,-100.00,North,9,3.0,5.0,87,0.00,,,0.01,1.000000,,2013-03-02 04:21:00,
2013-03-01 20:31:00,49.0,45.0,-100.00,North,9,3.0,5.0,87,0.00,,,0.01,1.000000,,2013-03-02 04:31:00,
2013-03-01 20:52:00,49.0,45.0,-100.00,NE,35,4.0,5.0,86,0.00,,,0.01,1.000000,,2013-03-02 04:52:00,
2013-03-01 21:01:00,49.0,45.0,-100.00,NE,35,4.0,5.0,86,0.00,,,0.01,1.000000,,2013-03-02 05:01:00,
2013-03-01 21:12:00,49.0,45.0,-100.00,NE,35,4.0,5.0,86,0.00,,,0.01,1.000000,,2013-03-02 05:12:00,
2013-03-01 21:22:00,49.0,45.0,-100.00,NE,35,4.0,5.0,86,0.00,,,0.01,1.000000,,2013-03-02 05:22:00,
2013-03-01 21:31:00,49.0,45.0,-100.00,NE,35,4.0,5.0,86,0.00,,,0.01,1.000000,,2013-03-02 05:31:00,
2013-03-01 22:01:00,50.0,45.0,-100.00,SSE,156,3.0,6.0,84,0.00,,,-99.99,1.000000,,2013-03-02 06:01:00,
2013-03-01 22:11:00,50.0,45.0,-100.00,SSE,156,3.0,6.0,84,0.00,,,-99.99,1.000000,,2013-03-02 06:11:00,
2013-03-01 22:21:00,50.0,45.0,-100.00,SSE,156,3.0,6.0,84,0.00,,,-99.99,1.000000,,2013-03-02 06:21:00,
2013-03-01 22:31:00,50.0,45.0,-100.00,SSE,156,3.0,6.0,84,0.00,,,-99.99,1.000000,,2013-03-02 06:31:00,
2013-03-01 22:52:00,48.0,46.0,-100.00,SSW,194,3.0,4.0,92,0.00,,,-99.99,1.000000,,2013-03-02 06:52:00,
2013-03-01 23:01:00,48.0,46.0,-100.00,SSW,194,3.0,4.0,92,0.00,,,-99.99,1.000000,,2013-03-02 07:01:00,
2013-03-01 23:11:00,48.0,46.0,-100.00,SSW,194,3.0,4.0,92,0.00,,,-99.99,1.000000,,2013-03-02 07:11:00,
2013-03-01 23:21:00,48.0,46.0,-100.00,SSW,194,3.0,4.0,92,0.00,,,-99.99,1.000000,,2013-03-02 07:21:00,
2013-03-01 23:32:00,48.0,46.0,-100.00,SSW,194,3.0,4.0,92,0.00,,,-99.99,1.000000,,2013-03-02 07:32:00,
2013-03-01 23:52:00,49.0,47.0,-100.00,SSE,167,0.0,4.0,93,0.00,,,0.01,1.000000,,2013-03-02 07:52:00,